| time (UTC) | temp F | wind direction | speed MPH | gust MPH | rain 1hr in | rain 24hr in | rain mn in | humidity % | barometer mb |
| 20260508154323 | 70 | 314 | 0.0 | 5.0 | 0.00 | 0.00 | 0.00 | 47 | 983.5 |
| 20260508153322 | 70 | 341 | 4.0 | 9.0 | 0.00 | 0.00 | 0.00 | 46 | 983.5 |
| 20260508152322 | 70 | 336 | 1.0 | 5.0 | 0.00 | 0.00 | 0.00 | 45 | 983.5 |
| 20260508151324 | 71 | 72 | 2.0 | 7.0 | 0.00 | 0.00 | 0.00 | 45 | 983.1 |
| 20260508150322 | 71 | 314 | 1.0 | 5.0 | 0.00 | 0.00 | 0.00 | 45 | 983.0 |
| 20260508145339 | 71 | 273 | 3.0 | 9.0 | 0.00 | 0.00 | 0.00 | 45 | 982.9 |
| 20260508144314 | 72 | 320 | 2.0 | 8.0 | 0.00 | 0.00 | 0.00 | 45 | 982.7 |
| 20260508143315 | 72 | 297 | 1.0 | 8.0 | 0.00 | 0.00 | 0.00 | 50 | 982.6 |
| 20260508142318 | 72 | 233 | 3.0 | 12.0 | 0.00 | 0.00 | 0.00 | 55 | 982.5 |
| 20260508141340 | 72 | 266 | 2.0 | 11.0 | 0.00 | 0.00 | 0.00 | 56 | 982.4 |
| 20260508140322 | 72 | 288 | 4.0 | 12.0 | 0.00 | 0.00 | 0.00 | 55 | 982.2 |
| 20260508135333 | 72 | 323 | 2.0 | 9.0 | 0.00 | 0.00 | 0.00 | 54 | 982.1 |
| 20260508134335 | 72 | 280 | 1.0 | 8.0 | 0.00 | 0.00 | 0.00 | 54 | 981.8 |
| 20260508133337 | 72 | 276 | 2.0 | 12.0 | 0.00 | 0.00 | 0.00 | 54 | 981.6 |
| 20260508132314 | 72 | 287 | 2.0 | 8.0 | 0.00 | 0.00 | 0.00 | 54 | 981.5 |
| 20260508131314 | 72 | 232 | 0.0 | 7.0 | 0.00 | 0.00 | 0.00 | 54 | 981.6 |
| 20260508130317 | 73 | 211 | 1.0 | 7.0 | 0.00 | 0.00 | 0.00 | 54 | 981.4 |
| 20260508125313 | 73 | 343 | 0.0 | 7.0 | 0.00 | 0.00 | 0.00 | 54 | 981.2 |
| 20260508124337 | 73 | 236 | 4.0 | 10.0 | 0.00 | 0.00 | 0.00 | 54 | 981.3 |
| 20260508123318 | 73 | 219 | 4.0 | 12.0 | 0.00 | 0.00 | 0.00 | 54 | 981.0 |
| 20260508122322 | 73 | 269 | 4.0 | 13.0 | 0.00 | 0.00 | 0.00 | 55 | 980.9 |
| 20260508121323 | 73 | 350 | 3.0 | 11.0 | 0.00 | 0.00 | 0.00 | 56 | 980.9 |
| 20260508120318 | 73 | 259 | 5.0 | 13.0 | 0.00 | 0.00 | 0.00 | 57 | 980.8 |
| 20260508115315 | 73 | 175 | 3.0 | 9.0 | 0.00 | 0.00 | 0.00 | 58 | 980.7 |
| 20260508114318 | 73 | 248 | 2.0 | 14.0 | 0.00 | 0.00 | 0.00 | 59 | 980.8 |
| 20260508113321 | 73 | 245 | 3.0 | 11.0 | 0.00 | 0.00 | 0.00 | 59 | 980.9 |
| 20260508112344 | 73 | 54 | 3.0 | 13.0 | 0.00 | 0.00 | 0.00 | 60 | 980.8 |
| 20260508111327 | 73 | 228 | 4.0 | 10.0 | 0.00 | 0.00 | 0.00 | 60 | 980.6 |
| 20260508110330 | 73 | 91 | 5.0 | 11.0 | 0.00 | 0.00 | 0.00 | 61 | 980.4 |
| 20260508105327 | 73 | 273 | 7.0 | 15.0 | 0.00 | 0.00 | 0.00 | 61 | 980.4 |
| 20260508104349 | 73 | 349 | 3.0 | 12.0 | 0.00 | 0.00 | 0.00 | 61 | 980.3 |
| 20260508103351 | 73 | 243 | 4.0 | 11.0 | 0.00 | 0.00 | 0.00 | 61 | 980.4 |
| 20260508102331 | 74 | 259 | 2.0 | 12.0 | 0.00 | 0.00 | 0.00 | 60 | 980.5 |
| 20260508101312 | 74 | 345 | 0.0 | 6.0 | 0.00 | 0.00 | 0.00 | 59 | 980.5 |
| 20260508100315 | 74 | 303 | 2.0 | 13.0 | 0.00 | 0.00 | 0.00 | 59 | 980.5 |
| 20260508095337 | 74 | 133 | 2.0 | 8.0 | 0.00 | 0.00 | 0.00 | 59 | 980.7 |
| 20260508094358 | 74 | 338 | 4.0 | 12.0 | 0.00 | 0.00 | 0.00 | 60 | 980.7 |
| 20260508093339 | 74 | 135 | 4.0 | 14.0 | 0.00 | 0.00 | 0.00 | 60 | 980.4 |
| 20260508092336 | 74 | 150 | 5.0 | 15.0 | 0.00 | 0.00 | 0.00 | 59 | 980.6 |
| 20260508091340 | 74 | 89 | 2.0 | 11.0 | 0.00 | 0.00 | 0.00 | 59 | 980.8 |
| 20260508090313 | 74 | 145 | 3.0 | 8.0 | 0.00 | 0.00 | 0.00 | 59 | 980.7 |
| 20260508085327 | 74 | 225 | 3.0 | 10.0 | 0.00 | 0.00 | 0.00 | 59 | 980.7 |
| 20260508084335 | 74 | 245 | 2.0 | 12.0 | 0.00 | 0.00 | 0.00 | 60 | 980.5 |
| 20260508083326 | 74 | 113 | 4.0 | 9.0 | 0.00 | 0.00 | 0.00 | 60 | 980.8 |
| 20260508082331 | 74 | 224 | 1.0 | 17.0 | 0.00 | 0.00 | 0.00 | 59 | 980.9 |
| 20260508081315 | 74 | 257 | 5.0 | 12.0 | 0.00 | 0.00 | 0.00 | 60 | 981.1 |
| 20260508080316 | 74 | 127 | 4.0 | 10.0 | 0.00 | 0.00 | 0.00 | 62 | 981.1 |
| 20260508075313 | 74 | 96 | 4.0 | 14.0 | 0.00 | 0.00 | 0.00 | 60 | 981.1 |
| 20260508074336 | 75 | 114 | 3.0 | 8.0 | 0.00 | 0.00 | 0.00 | 59 | 981.3 |
| 20260508073339 | 76 | 214 | 2.0 | 10.0 | 0.00 | 0.00 | 0.00 | 58 | 981.4 |
| 20260508072315 | 75 | 122 | 3.0 | 9.0 | 0.00 | 0.00 | 0.00 | 59 | 981.4 |
| 20260508071324 | 75 | 103 | 2.0 | 7.0 | 0.00 | 0.00 | 0.00 | 61 | 981.3 |
| 20260508070317 | 76 | 111 | 3.0 | 11.0 | 0.00 | 0.00 | 0.00 | 62 | 981.5 |
| 20260508065316 | 76 | 267 | 2.0 | 9.0 | 0.00 | 0.00 | 0.00 | 61 | 981.8 |
| 20260508064318 | 76 | 102 | 3.0 | 10.0 | 0.00 | 0.00 | 0.00 | 62 | 981.9 |
| 20260508063318 | 76 | 132 | 3.0 | 8.0 | 0.00 | 0.00 | 0.00 | 62 | 982.1 |
| 20260508062322 | 77 | 96 | 3.0 | 7.0 | 0.00 | 0.00 | 0.00 | 62 | 982.0 |
| 20260508061323 | 77 | 160 | 0.0 | 8.0 | 0.00 | 0.00 | 0.00 | 63 | 982.1 |
| 20260508060325 | 77 | 75 | 2.0 | 7.0 | 0.00 | 0.00 | 0.00 | 64 | 982.4 |
| 20260508055320 | 76 | 139 | 0.0 | 6.0 | 0.00 | 0.00 | 0.00 | 64 | 982.2 |
| 20260508054338 | 77 | 133 | 2.0 | 5.0 | 0.00 | 0.00 | 0.00 | 62 | 982.3 |
| 20260508053317 | 76 | 132 | 1.0 | 8.0 | 0.00 | 0.00 | 0.00 | 63 | 982.7 |
| 20260508052341 | 77 | 127 | 3.0 | 11.0 | 0.00 | 0.00 | 0.00 | 62 | 982.7 |
| 20260508051314 | 77 | 276 | 0.0 | 4.0 | 0.00 | 0.00 | 0.00 | 61 | 983.1 |
| 20260508050315 | 77 | 103 | 3.0 | 7.0 | 0.00 | 0.00 | 0.00 | 61 | 983.0 |
| 20260508045339 | 76 | 136 | 1.0 | 4.0 | 0.00 | 0.00 | 0.00 | 65 | 983.1 |
| 20260508044314 | 75 | 121 | 3.0 | 7.0 | 0.00 | 0.00 | 0.00 | 66 | 983.5 |
| 20260508043316 | 75 | 114 | 3.0 | 8.0 | 0.00 | 0.00 | 0.00 | 67 | 983.5 |
| 20260508042339 | 75 | 124 | 4.0 | 7.0 | 0.00 | 0.00 | 0.00 | 67 | 984.0 |
| 20260508041339 | 75 | 119 | 2.0 | 6.0 | 0.00 | 0.00 | 0.00 | 66 | 984.2 |
| 20260508040318 | 76 | 107 | 1.0 | 6.0 | 0.00 | 0.00 | 0.00 | 65 | 984.2 |
| 20260508035349 | 77 | 287 | 2.0 | 6.0 | 0.00 | 0.00 | 0.00 | 63 | 984.2 |
| 20260508034335 | 76 | 121 | 2.0 | 5.0 | 0.00 | 0.00 | 0.00 | 63 | 984.3 |
| 20260508033332 | 75 | 100 | 0.0 | 6.0 | 0.00 | 0.00 | 0.00 | 64 | 984.5 |
| 20260508032333 | 75 | 124 | 2.0 | 9.0 | 0.00 | 0.00 | 0.00 | 64 | 984.8 |
| 20260508031313 | 76 | 138 | 2.0 | 8.0 | 0.00 | 0.00 | 0.00 | 63 | 985.0 |
| 20260508030335 | 77 | 314 | 1.0 | 10.0 | 0.00 | 0.00 | 0.00 | 60 | 985.0 |
| 20260508025329 | 77 | 264 | 2.0 | 9.0 | 0.00 | 0.00 | 0.00 | 59 | 985.2 |
| 20260508024331 | 77 | 266 | 4.0 | 8.0 | 0.00 | 0.00 | 0.00 | 58 | 985.3 |
| 20260508023313 | 76 | 143 | 3.0 | 11.0 | 0.00 | 0.00 | 0.00 | 59 | 985.2 |
| 20260508022333 | 76 | 122 | 4.0 | 7.0 | 0.00 | 0.00 | 0.00 | 63 | 985.3 |
| 20260508021336 | 76 | 134 | 1.0 | 4.0 | 0.00 | 0.00 | 0.00 | 64 | 985.4 |
| 20260508020336 | 76 | 5 | 3.0 | 7.0 | 0.00 | 0.00 | 0.00 | 62 | 985.3 |
| 20260508015329 | 77 | 55 | 0.0 | 4.0 | 0.00 | 0.00 | 0.00 | 61 | 985.3 |
| 20260508014332 | 77 | 118 | 0.0 | 5.0 | 0.00 | 0.00 | 0.00 | 61 | 985.3 |
| 20260508013334 | 76 | 105 | 0.0 | 4.0 | 0.00 | 0.00 | 0.00 | 60 | 985.5 |
| 20260508012331 | 76 | 269 | 0.0 | 4.0 | 0.00 | 0.00 | 0.00 | 60 | 985.6 |
| 20260508011330 | 76 | 113 | 1.0 | 4.0 | 0.00 | 0.00 | 0.00 | 59 | 985.5 |
| 20260508010357 | 76 | 267 | 0.0 | 3.0 | 0.00 | 0.00 | 0.00 | 59 | 986.1 |
| 20260508005331 | 76 | 116 | 0.0 | 4.0 | 0.00 | 0.00 | 0.00 | 59 | 986.0 |
| 20260508004352 | 76 | 119 | 0.0 | 4.0 | 0.00 | 0.00 | 0.00 | 59 | 986.2 |
| 20260508003333 | 77 | 124 | 1.0 | 4.0 | 0.00 | 0.00 | 0.00 | 58 | 986.4 |
| 20260508002338 | 77 | 65 | 1.0 | 4.0 | 0.00 | 0.00 | 0.00 | 58 | 986.5 |
| 20260508001313 | 76 | 118 | 0.0 | 5.0 | 0.00 | 0.00 | 0.00 | 59 | 986.5 |
| 20260508000315 | 76 | 72 | 1.0 | 4.0 | 0.00 | 0.00 | 0.00 | 60 | 986.5 |
| 20260507235332 | 75 | 253 | 0.0 | 3.0 | 0.00 | 0.00 | 0.00 | 62 | 986.7 |
| 20260507234327 | 74 | 111 | 1.0 | 6.0 | 0.00 | 0.00 | 0.00 | 63 | 986.8 |
| 20260507233354 | 74 | 105 | 0.0 | 4.0 | 0.00 | 0.00 | 0.00 | 64 | 986.8 |
| 20260507232334 | 75 | 135 | 0.0 | 3.0 | 0.00 | 0.00 | 0.00 | 62 | 987.0 |
| 20260507231337 | 75 | 356 | 0.0 | 3.0 | 0.00 | 0.00 | 0.00 | 62 | 987.1 |
| 20260507230337 | 75 | 116 | 0.0 | 1.0 | 0.00 | 0.00 | 0.00 | 61 | 987.0 |
| 20260507225348 | 74 | 116 | 0.0 | 2.0 | 0.00 | 0.00 | 0.00 | 61 | 987.0 |
| 20260507224329 | 74 | 102 | 0.0 | 0.0 | 0.00 | 0.00 | 0.00 | 62 | 987.2 |
| 20260507223331 | 73 | 114 | 0.0 | 3.0 | 0.00 | 0.00 | 0.00 | 64 | 987.2 |
| 20260507222348 | 73 | 124 | 1.0 | 2.0 | 0.00 | 0.00 | 0.00 | 65 | 987.3 |
| 20260507221328 | 72 | 107 | 0.0 | 2.0 | 0.00 | 0.00 | 0.00 | 66 | 987.4 |
| 20260507220350 | 72 | 197 | 0.0 | 3.0 | 0.00 | 0.00 | 0.00 | 68 | 987.5 |
| 20260507215330 | 71 | 266 | 0.0 | 1.0 | 0.00 | 0.00 | 0.00 | 70 | 987.6 |
| 20260507214325 | 70 | 132 | 0.0 | 1.0 | 0.00 | 0.00 | 0.00 | 71 | 987.6 |
| 20260507213328 | 69 | 105 | 0.0 | 2.0 | 0.00 | 0.00 | 0.00 | 74 | 987.4 |
| 20260507212330 | 69 | 108 | 0.0 | 1.0 | 0.00 | 0.00 | 0.00 | 75 | 987.4 |
| 20260507211314 | 68 | 114 | 1.0 | 2.0 | 0.00 | 0.00 | 0.00 | 75 | 987.5 |
| 20260507210318 | 68 | 104 | 0.0 | 1.0 | 0.00 | 0.00 | 0.00 | 75 | 987.3 |
| 20260507205333 | 68 | 135 | 0.0 | 2.0 | 0.00 | 0.00 | 0.00 | 76 | 987.3 |
| 20260507204315 | 68 | 74 | 0.0 | 3.0 | 0.00 | 0.00 | 0.00 | 76 | 987.4 |
| 20260507203334 | 68 | 129 | 0.0 | 0.0 | 0.00 | 0.00 | 0.00 | 76 | 987.4 |
| 20260507202333 | 0 | 0.0 | 0.0 | 0.00 | 0.00 | 0.00 | 987.5 | ||
| 20260507201313 | 0 | 0.0 | 0.0 | 0.00 | 0.00 | 0.00 | 987.4 | ||
| 20260507200315 | 0 | 0.0 | 0.0 | 0.00 | 0.00 | 0.00 | 987.3 | ||
| 20260507195310 | 0 | 0.0 | 0.0 | 0.00 | 0.00 | 0.00 | 987.1 | ||
| 20260507193332 | 0 | 0.0 | 0.0 | 0.00 | 0.00 | 0.00 | 987.0 | ||
| 20260507192312 | 0 | 0.0 | 0.0 | 0.00 | 0.00 | 0.00 | 986.9 | ||
| 20260507191319 | 0 | 0.0 | 0.0 | 0.00 | 0.00 | 0.00 | 987.0 | ||
| 20260507190321 | 0 | 0.0 | 0.0 | 0.00 | 0.00 | 0.00 | 987.0 | ||
| 20260507185340 | 0 | 0.0 | 0.0 | 0.00 | 0.00 | 0.00 | 987.1 | ||
| 20260507184338 | 0 | 0.0 | 0.0 | 0.00 | 0.00 | 0.00 | 987.2 | ||
| 20260507183321 | 0 | 0.0 | 0.0 | 0.00 | 0.00 | 0.00 | 987.2 | ||
| 20260507181319 | 68 | 114 | 0.0 | 2.0 | 0.00 | 0.00 | 0.00 | 74 | 987.0 |
| 20260507180322 | 68 | 102 | 0.0 | 1.0 | 0.00 | 0.00 | 0.00 | 75 | 987.2 |
| 20260507175315 | 68 | 121 | 0.0 | 0.0 | 0.00 | 0.00 | 0.00 | 75 | 987.2 |
| 20260507174315 | 68 | 121 | 0.0 | 0.0 | 0.00 | 0.00 | 0.00 | 75 | 987.1 |
| 20260507173316 | 68 | 124 | 0.0 | 2.0 | 0.00 | 0.00 | 0.00 | 75 | 987.1 |
| 20260507172341 | 68 | 116 | 0.0 | 0.0 | 0.00 | 0.00 | 0.00 | 75 | 987.3 |
| 20260507171317 | 69 | 122 | 1.0 | 3.0 | 0.00 | 0.00 | 0.00 | 74 | 987.3 |
| 20260507170334 | 69 | 115 | 0.0 | 2.0 | 0.00 | 0.00 | 0.00 | 73 | 987.4 |
| 20260507165327 | 69 | 103 | 0.0 | 3.0 | 0.00 | 0.00 | 0.00 | 73 | 987.5 |
| 20260507164335 | 69 | 260 | 1.0 | 3.0 | 0.00 | 0.00 | 0.00 | 72 | 987.5 |
| 20260507163329 | 69 | 347 | 0.0 | 4.0 | 0.00 | 0.00 | 0.00 | 71 | 987.7 |
| 20260507162336 | 69 | 224 | 0.0 | 4.0 | 0.00 | 0.00 | 0.00 | 71 | 987.7 |
| 20260507161359 | 69 | 188 | 0.0 | 4.0 | 0.00 | 0.00 | 0.00 | 70 | 987.8 |
| 20260507160332 | 70 | 152 | 0.0 | 2.0 | 0.00 | 0.00 | 0.00 | 70 | 987.8 |
| 20260507155328 | 70 | 243 | 2.0 | 5.0 | 0.00 | 0.00 | 0.00 | 70 | 987.8 |